Change the Weather History Date:

Wednesday, December 4, 2013

  Actual Average (KTVL) Record (KTVL)
Temperature  
Mean Temperature 10 °F 31 °F  
Max Temperature 23 °F 44 °F 59 °F (1979)
Min Temperature -2 °F 18 °F -2 °F (2001)
Degree Days  
Heating Degree Days 54 34  
Month to date heating degree days 134  
Since 1 July heating degree days 2227  
Cooling Degree Days 0 0  
Month to date cooling degree days 0  
Year to date cooling degree days 31  
Moisture  
Dew Point 1 °F    
Average Humidity 71    
Maximum Humidity 81    
Minimum Humidity 46    
Precipitation  
Precipitation 0.00 in - 2.20 in (1950)
Month to date precipitation  
Year to date precipitation  
Sea Level Pressure  
Sea Level Pressure 30.00 in    
Wind  
Wind Speed 1 mph (North)    
Max Wind Speed 10 mph    
Max Gust Speed -    
Visibility 10 miles    
Events      
T = Trace of Precipitation, MM = Missing Value Source: NWS Daily Summary

Daily Weather History Graph

Daily Weather History Graph

Search for Another Location

Airport or City:

Trip Planner

Search our weather history database for the weather conditions in past years. The results will help you decide how hot, cold, wet, or windy it might be!

Date:

Astronomy

Dec. 04, 2013 Rise Set
Actual Time 6:59 AM PST 4:37 PM PST
Civil Twilight 6:30 AM PST 5:06 PM PST
Nautical Twilight 5:57 AM PST 5:39 PM PST
Astronomical Twilight 5:25 AM PST 6:11 PM PST
Moon 8:32 AM PST (12/4) 6:52 PM PST (12/4)
Length of Visible Light 10h 36m
Length of Day
9h 38m
Waxing Crescent, 5% of the Moon is Illuminated
Dec 4
Waxing Crescent
Dec 9
First Quarter
Dec 17
Full
Dec 25
Last Quarter
Jan 1
New

Hourly Weather History & Observations

Time (PST) Temp. Windchill Dew Point Humidity Pressure Visibility Wind Dir Wind Speed Gust Speed Precip Events Conditions
12:52 AM 6.1 °F - -0.9 °F 73% 29.84 in 10.0 mi Calm Calm - N/A   Clear
1:52 AM 3.9 °F -5.3 °F -2.9 °F 73% 29.91 in 10.0 mi Variable 4.6 mph - N/A   Partly Cloudy
2:52 AM 1.9 °F - -4.0 °F 76% 29.95 in 10.0 mi Calm Calm - N/A   Clear
3:52 AM -2.9 °F - -8.0 °F 79% 29.98 in 10.0 mi Calm Calm - N/A   Clear
4:52 AM -0.9 °F - -7.1 °F 75% 29.99 in 10.0 mi Calm Calm - N/A   Clear
5:52 AM -2.9 °F - -9.0 °F 75% 30.06 in 10.0 mi Calm Calm - N/A   Clear
6:52 AM -2.9 °F - -9.9 °F 72% 30.08 in 10.0 mi Calm Calm - N/A   Mostly Cloudy
7:52 AM -0.0 °F - -5.1 °F 79% 30.08 in 10.0 mi Calm Calm - N/A   Mostly Cloudy
8:52 AM 1.9 °F - -2.9 °F 80% 30.08 in 10.0 mi Calm Calm - N/A   Clear
9:52 AM 9.0 °F - 1.0 °F 70% 30.04 in 10.0 mi Calm Calm - N/A   Clear
10:52 AM 16.0 °F - 5.0 °F 62% 29.99 in 10.0 mi Calm Calm - N/A   Clear
11:52 AM 19.9 °F - 3.9 °F 50% 29.96 in 10.0 mi Calm Calm - N/A   Clear
12:52 PM 23.0 °F - 5.0 °F 46% 29.94 in 10.0 mi Calm Calm - N/A   Clear
1:52 PM 23.0 °F - 6.1 °F 48% 29.93 in 10.0 mi Calm Calm - N/A   Clear
2:52 PM 21.9 °F 11.0 °F 9.0 °F 58% 29.94 in 10.0 mi ESE 10.4 mph - N/A   Clear
3:52 PM 18.0 °F 12.7 °F 9.0 °F 68% 30.01 in 10.0 mi East 3.5 mph - N/A   Partly Cloudy
4:52 PM 12.9 °F - 7.0 °F 77% 30.06 in 10.0 mi Calm Calm - N/A   Overcast
5:52 PM 10.0 °F 3.6 °F 5.0 °F 80% 30.08 in 10.0 mi NNW 3.5 mph - N/A   Overcast
6:52 PM 10.9 °F - 5.0 °F 77% 30.10 in 10.0 mi Calm Calm - N/A   Overcast
7:19 PM 10.9 °F - 6.1 °F 81% 29.85 in 10.0 mi Calm Calm - N/A   Overcast
7:52 PM 12.0 °F - 7.0 °F 80% 30.09 in 10.0 mi Calm Calm - N/A   Overcast
8:52 PM 12.9 °F 3.8 °F 6.1 °F 74% 30.07 in 10.0 mi North 5.8 mph - N/A   Overcast
9:52 PM 10.9 °F 1.4 °F 3.0 °F 70% 30.06 in 10.0 mi NNW 5.8 mph - N/A   Overcast
10:52 PM 10.0 °F -0.9 °F 1.9 °F 70% 30.05 in 10.0 mi North 6.9 mph - N/A   Overcast
11:15 PM 10.0 °F 3.6 °F 3.0 °F 73% 29.88 in 10.0 mi Variable 3.5 mph - N/A   Overcast
11:52 PM 9.0 °F 0.6 °F 1.0 °F 70% 30.02 in 10.0 mi North 4.6 mph - N/A   Overcast